Time_in_sec,gx,gy,gz
1312468614.41121864,-0.00183204,0.00256645,-0.99999503
1312468614.47211576,-0.00201093,0.00273010,-0.99999425
1312468614.52716780,-0.00139362,0.00212711,-0.99999677
1312468614.57218027,-0.00117784,0.00214659,-0.99999700
1312468614.62310410,-0.00090623,0.00217588,-0.99999722
1312468614.66018629,-0.00080850,0.00208246,-0.99999750
1312468614.72320390,-0.00091126,0.00205928,-0.99999746
1312468614.77119279,-0.00054027,0.00141198,-0.99999886
1312468614.82055140,-0.00049363,0.00114940,-0.99999922
1312468614.87107801,-0.00062570,0.00149994,-0.99999868
1312468614.91116810,-0.00050755,0.00139885,-0.99999889
1312468614.97208333,-0.00048494,0.00129818,-0.99999904
1312468615.02322054,-0.00000691,0.00127118,-0.99999919
1312468615.07220936,0.00015958,0.00126632,-0.99999919
1312468615.12312794,0.00012167,0.00113101,-0.99999935
1312468615.17212296,-0.00012018,0.00094307,-0.99999955
1312468615.22311282,-0.00010714,0.00113617,-0.99999935
1312468615.27212596,0.00099062,0.00155580,-0.99999830
1312468615.32357478,0.00121241,0.00161917,-0.99999795
1312468615.37202883,0.00096424,0.00160988,-0.99999824
1312468615.41223121,0.00113887,0.00157876,-0.99999811
1312468615.47110248,0.00126933,0.00160646,-0.99999790
1312468615.52313280,0.00126082,0.00229311,-0.99999658
1312468615.57212567,0.00104439,0.00231714,-0.99999677
1312468615.62409234,0.00101186,0.00216159,-0.99999715
1312468615.66411710,0.00108930,0.00205717,-0.99999729
1312468615.72336531,0.00103845,0.00195679,-0.99999755
1312468615.77210569,0.00150126,0.00170469,-0.99999742
1312468615.82480264,0.00155128,0.00190771,-0.99999698
1312468615.87115383,0.00166680,0.00174978,-0.99999708
1312468615.91185260,0.00144572,0.00169809,-0.99999751
1312468615.97110200,0.00129593,0.00167148,-0.99999776
1312468616.02413225,0.00159038,0.00175966,-0.99999719
1312468616.07113791,0.00160091,0.00162880,-0.99999739
1312468616.12321925,0.00161617,0.00175764,-0.99999715
1312468616.17213869,0.00150365,0.00147371,-0.99999778
1312468616.22395015,0.00142547,0.00143575,-0.99999795
1312468616.27247572,0.00145271,0.00194375,-0.99999706
1312468616.32431245,0.00129490,0.00220939,-0.99999672
1312468616.37213230,0.00121124,0.00216985,-0.99999691
1312468616.41121411,0.00125661,0.00209124,-0.99999702
1312468616.47222590,0.00111086,0.00189020,-0.99999760
1312468616.52410102,0.00114155,0.00254409,-0.99999611
1312468616.57119703,0.00105462,0.00243946,-0.99999647
1312468616.62320614,0.00097283,0.00246113,-0.99999650
1312468616.66422820,0.00107864,0.00271048,-0.99999574
1312468616.72317028,0.00108180,0.00257223,-0.99999611
1312468616.77120948,0.00068643,0.00302885,-0.99999518
1312468616.82324839,0.00041329,0.00297228,-0.99999550
1312468616.87121177,0.00067991,0.00274468,-0.99999600
1312468616.91120744,0.00055259,0.00269894,-0.99999621
1312468616.97119951,0.00063195,0.00256670,-0.99999651
1312468617.02169752,0.00025303,0.00315925,-0.99999498
1312468617.07225370,0.00017389,0.00326445,-0.99999466
1312468617.12308645,0.00024307,0.00334887,-0.99999436
1312468617.17217493,0.00037848,0.00320746,-0.99999478
1312468617.22022629,0.00044585,0.00298205,-0.99999545
1312468617.27121806,0.00055674,0.00293212,-0.99999555
1312468617.32413745,0.00041014,0.00291192,-0.99999568
1312468617.37223101,0.00045500,0.00326149,-0.99999458
1312468617.41221666,0.00057704,0.00320880,-0.99999469
1312468617.47216678,0.00045856,0.00314084,-0.99999496
1312468617.52309346,0.00077966,0.00411582,-0.99999123
1312468617.57121754,0.00079047,0.00400689,-0.99999166
1312468617.62327385,0.00079248,0.00419499,-0.99999089
1312468617.66412735,0.00059913,0.00417569,-0.99999110
1312468617.72410154,0.00054775,0.00413109,-0.99999132
1312468617.77112532,0.00077031,0.00486170,-0.99998789
1312468617.82327485,0.00061039,0.00501897,-0.99998722
1312468617.87111449,0.00054112,0.00505992,-0.99998705
1312468617.91217446,0.00044650,0.00488919,-0.99998795
1312468617.97112203,0.00050734,0.00496892,-0.99998753
1312468618.02312088,0.00053383,0.00523111,-0.99998618
1312468618.07108569,0.00056296,0.00522780,-0.99998618
1312468618.12410259,0.00065519,0.00514617,-0.99998654
1312468618.17108369,0.00047212,0.00499743,-0.99998740
1312468618.22309804,0.00026899,0.00493181,-0.99998780
1312468618.27113175,-0.00010431,0.00488020,-0.99998809
1312468618.32482934,-0.00026918,0.00492889,-0.99998782
1312468618.37118816,-0.00019052,0.00483620,-0.99998829
1312468618.41213107,-0.00020603,0.00487882,-0.99998808
1312468618.47130203,-0.00020083,0.00503426,-0.99998731
1312468618.52313018,-0.00062810,0.00495554,-0.99998752
1312468618.57155061,-0.00061852,0.00505113,-0.99998705
1312468618.62469268,-0.00055310,0.00514803,-0.99998660
1312468618.67221403,-0.00054097,0.00516482,-0.99998652
1312468618.72335577,-0.00052909,0.00501174,-0.99998730
1312468618.77122784,-0.00052879,0.00474275,-0.99998861
1312468618.82422853,-0.00055321,0.00503631,-0.99998716
1312468618.87115216,-0.00043246,0.00477383,-0.99998851
1312468618.91215134,-0.00053929,0.00484350,-0.99998812
1312468618.97110319,-0.00061151,0.00477325,-0.99998842
1312468619.02205253,-0.00000903,0.00468637,-0.99998902
1312468619.07211113,0.00002554,0.00450831,-0.99998984
1312468619.12313008,-0.00003328,0.00425992,-0.99999093
1312468619.17123652,-0.00027595,0.00443547,-0.99999013
1312468619.22314668,-0.00043351,0.00440114,-0.99999022
1312468619.27225184,0.00008848,0.00387232,-0.99999250
1312468619.32452250,-0.00028006,0.00382998,-0.99999263
1312468619.37192178,-0.00008242,0.00377534,-0.99999287
1312468619.41121674,-0.00005794,0.00381683,-0.99999271
1312468619.47124577,-0.00004609,0.00371914,-0.99999308
1312468619.52311420,-0.00049097,0.00326569,-0.99999455
1312468619.57116818,-0.00072655,0.00341851,-0.99999389
1312468619.62311769,-0.00053329,0.00339995,-0.99999408
1312468619.66317058,-0.00066390,0.00337905,-0.99999407
1312468619.72311354,-0.00076449,0.00335730,-0.99999407
1312468619.77188182,-0.00113965,0.00275751,-0.99999555
1312468619.82318997,-0.00101574,0.00250580,-0.99999634
1312468619.87125397,-0.00110196,0.00261889,-0.99999596
1312468619.91222525,-0.00116570,0.00277683,-0.99999547
1312468619.97218513,-0.00110914,0.00296855,-0.99999498
1312468620.02024364,-0.00120466,0.00303950,-0.99999466
1312468620.07121134,-0.00108768,0.00305251,-0.99999475
1312468620.12024260,-0.00096337,0.00324440,-0.99999427
1312468620.17120075,-0.00101598,0.00331760,-0.99999398
1312468620.22157836,-0.00103069,0.00323263,-0.99999424
1312468620.27124977,-0.00083021,0.00353678,-0.99999340
1312468620.32010555,-0.00090862,0.00329508,-0.99999416
1312468620.37220359,-0.00097931,0.00363790,-0.99999290
1312468620.41212893,-0.00103558,0.00381907,-0.99999217
1312468620.47213984,-0.00105674,0.00378129,-0.99999229
1312468620.52019858,-0.00146802,0.00390426,-0.99999130
1312468620.57250357,-0.00155773,0.00394460,-0.99999101
1312468620.62219524,-0.00149066,0.00395908,-0.99999105
1312468620.66325927,-0.00148559,0.00398593,-0.99999095
1312468620.72309399,-0.00125570,0.00412796,-0.99999069
1312468620.77212191,-0.00131992,0.00430412,-0.99998987
1312468620.82083535,-0.00128700,0.00424038,-0.99999018
1312468620.87214017,-0.00115285,0.00445254,-0.99998942
1312468620.91211295,-0.00131808,0.00437039,-0.99998958
1312468620.97112536,-0.00143329,0.00448383,-0.99998892
1312468621.02373290,-0.00122979,0.00407092,-0.99999096
1312468621.07113099,-0.00134391,0.00431295,-0.99998980
1312468621.12319446,-0.00126298,0.00421935,-0.99999030
1312468621.17111325,-0.00155815,0.00420261,-0.99998996
1312468621.22310996,-0.00162087,0.00430049,-0.99998944
1312468621.27120972,-0.00257206,0.00368191,-0.99998991
1312468621.32451916,-0.00267498,0.00366478,-0.99998971
1312468621.37112832,-0.00274430,0.00376210,-0.99998916
1312468621.41120267,-0.00279953,0.00378867,-0.99998890
1312468621.47163510,-0.00264474,0.00397421,-0.99998861
1312468621.52423263,-0.00301465,0.00304163,-0.99999083
1312468621.57112455,-0.00290960,0.00293773,-0.99999145
1312468621.62415457,-0.00292989,0.00304401,-0.99999107
1312468621.66326046,-0.00306016,0.00312525,-0.99999043
1312468621.72307396,-0.00332160,0.00326786,-0.99998914
1312468621.77108288,-0.00383792,0.00289665,-0.99998844
1312468621.82451224,-0.00386546,0.00281748,-0.99998856
1312468621.87110782,-0.00405371,0.00272232,-0.99998808
1312468621.91213369,-0.00410803,0.00299090,-0.99998709
1312468621.97113609,-0.00417819,0.00295137,-0.99998692
1312468622.02309537,-0.00512448,0.00293974,-0.99998255
1312468622.07120180,-0.00507271,0.00287324,-0.99998301
1312468622.12311459,-0.00489108,0.00252775,-0.99998484
1312468622.17120910,-0.00489044,0.00252308,-0.99998486
1312468622.22226787,-0.00473058,0.00244681,-0.99998582
1312468622.27111292,-0.00484671,0.00307280,-0.99998353
1312468622.32406139,-0.00486169,0.00331035,-0.99998270
1312468622.37123370,-0.00471004,0.00324589,-0.99998364
1312468622.41215611,-0.00483858,0.00341713,-0.99998246
1312468622.47129440,-0.00482868,0.00320801,-0.99998320
1312468622.52351952,-0.00406388,0.00379250,-0.99998455
1312468622.57119417,-0.00402129,0.00398995,-0.99998395
1312468622.62308550,-0.00416154,0.00396922,-0.99998346
1312468622.66414881,-0.00445302,0.00385733,-0.99998265
1312468622.72312951,-0.00452097,0.00372723,-0.99998283
1312468622.77121639,-0.00447554,0.00412868,-0.99998146
1312468622.82307935,-0.00432714,0.00409210,-0.99998227
1312468622.87113786,-0.00433473,0.00404813,-0.99998241
1312468622.91268516,-0.00423187,0.00390649,-0.99998342
1312468622.97120380,-0.00440575,0.00366742,-0.99998357
1312468623.02185488,-0.00408914,0.00406747,-0.99998337
1312468623.07120991,-0.00410389,0.00426041,-0.99998250
1312468623.12026072,-0.00405922,0.00447580,-0.99998174
1312468623.17121387,-0.00391615,0.00454575,-0.99998200
1312468623.22332883,-0.00378681,0.00455220,-0.99998247
1312468623.27112675,-0.00371087,0.00458973,-0.99998258
1312468623.32339907,-0.00367493,0.00434278,-0.99998382
1312468623.37112999,-0.00364766,0.00470123,-0.99998230
1312468623.42014909,-0.00368843,0.00463519,-0.99998246
1312468623.47111797,-0.00379078,0.00457896,-0.99998233
1312468623.52326035,-0.00385894,0.00461047,-0.99998193
1312468623.57113647,-0.00396873,0.00438566,-0.99998251
1312468623.62311339,-0.00422210,0.00452548,-0.99998085
1312468623.66007066,-0.00423760,0.00450554,-0.99998087
1312468623.72013879,-0.00427774,0.00454258,-0.99998053
1312468623.77210975,-0.00426781,0.00473860,-0.99997967
1312468623.82444358,-0.00413483,0.00457299,-0.99998100
1312468623.87112713,-0.00432907,0.00446115,-0.99998068
1312468623.91287899,-0.00448891,0.00427180,-0.99998080
1312468623.97113585,-0.00443765,0.00456229,-0.99997975
1312468624.02310228,-0.00423454,0.00446433,-0.99998107
1312468624.07211471,-0.00413132,0.00450142,-0.99998133
1312468624.12346172,-0.00407394,0.00473442,-0.99998049
1312468624.16423082,-0.00401094,0.00465312,-0.99998113
1312468624.22324777,-0.00390820,0.00491315,-0.99998029
1312468624.27113247,-0.00419220,0.00460680,-0.99998060
1312468624.32336473,-0.00430137,0.00457468,-0.99998029
1312468624.37108374,-0.00432851,0.00443909,-0.99998078
1312468624.41226411,-0.00451357,0.00425418,-0.99998076
1312468624.47112584,-0.00451352,0.00430366,-0.99998055
1312468624.52350616,-0.00478748,0.00383871,-0.99998117
1312468624.57111812,-0.00503367,0.00388947,-0.99997977
1312468624.62394285,-0.00519664,0.00370934,-0.99997962
1312468624.66328311,-0.00535229,0.00369279,-0.99997886
1312468624.72410893,-0.00551590,0.00379407,-0.99997759
1312468624.77221560,-0.00566745,0.00376860,-0.99997684
1312468624.82577467,-0.00555235,0.00369240,-0.99997777
1312468624.87223315,-0.00580433,0.00363553,-0.99997655
1312468624.91166759,-0.00597051,0.00363289,-0.99997558
1312468624.97222090,-0.00608989,0.00353808,-0.99997520
1312468625.02322555,-0.00613608,0.00340104,-0.99997539
1312468625.07120013,-0.00602189,0.00358585,-0.99997544
1312468625.12410855,-0.00604075,0.00337231,-0.99997607
1312468625.16422462,-0.00587583,0.00345536,-0.99997677
1312468625.22308660,-0.00575443,0.00343166,-0.99997755
1312468625.27113390,-0.00607150,0.00395917,-0.99997373
1312468625.32320333,-0.00600426,0.00396754,-0.99997410
1312468625.37112141,-0.00623712,0.00400669,-0.99997252
1312468625.41120124,-0.00637717,0.00409604,-0.99997128
1312468625.47110724,-0.00633476,0.00403158,-0.99997181
1312468625.52310586,-0.00656531,0.00466817,-0.99996755
1312468625.57210493,-0.00677548,0.00458891,-0.99996652
1312468625.62320566,-0.00672798,0.00479826,-0.99996585
1312468625.66412973,-0.00680187,0.00468666,-0.99996588
1312468625.71613574,-0.00675972,0.00442372,-0.99996737
1312468625.77158475,-0.00624285,0.00450946,-0.99997035
1312468625.82039666,-0.00652431,0.00436188,-0.99996920
1312468625.87120509,-0.00654556,0.00458213,-0.99996808
1312468625.91121244,-0.00653598,0.00454445,-0.99996831
1312468625.97120285,-0.00673507,0.00455773,-0.99996693
1312468626.02028394,-0.00677248,0.00423927,-0.99996808
1312468626.07165456,-0.00653950,0.00438993,-0.99996898
1312468626.12308812,-0.00657001,0.00473096,-0.99996723
1312468626.17178202,-0.00637057,0.00494945,-0.99996746
1312468626.22511315,-0.00657865,0.00509043,-0.99996540
1312468626.27122140,-0.00598574,0.00523564,-0.99996838
1312468626.32021952,-0.00596265,0.00501506,-0.99996965
1312468626.37222314,-0.00614088,0.00503584,-0.99996846
1312468626.41212130,-0.00617135,0.00495175,-0.99996870
1312468626.47121906,-0.00593903,0.00500265,-0.99996985
1312468626.52322102,-0.00501586,0.00509586,-0.99997444
1312468626.57116342,-0.00500904,0.00489919,-0.99997545
1312468626.62012243,-0.00492187,0.00492747,-0.99997575
1312468626.66347957,-0.00482994,0.00466500,-0.99997745
1312468626.72015834,-0.00475633,0.00487998,-0.99997678
1312468626.77214503,-0.00476128,0.00521402,-0.99997507
1312468626.82310605,-0.00499988,0.00521609,-0.99997390
1312468626.87115216,-0.00538522,0.00519652,-0.99997200
1312468626.91116405,-0.00539657,0.00509881,-0.99997244
1312468626.97223711,-0.00513334,0.00495353,-0.99997456
1312468627.02710986,-0.00479114,0.00455077,-0.99997817
1312468627.07222748,-0.00464344,0.00429769,-0.99997998
1312468627.12309337,-0.00450842,0.00403812,-0.99998168
1312468627.17221284,-0.00463125,0.00388218,-0.99998174
1312468627.22311115,-0.00458672,0.00381956,-0.99998219
1312468627.27204347,-0.00414376,0.00331710,-0.99998591
1312468627.32309628,-0.00434529,0.00346853,-0.99998454
1312468627.37195683,-0.00434651,0.00356968,-0.99998418
1312468627.41225624,-0.00447909,0.00329608,-0.99998454
1312468627.47221398,-0.00442346,0.00335259,-0.99998460
1312468627.52321649,-0.00446326,0.00271046,-0.99998637
1312468627.57157087,-0.00424177,0.00293778,-0.99998669
1312468627.62421465,-0.00428498,0.00291159,-0.99998658
1312468627.66311455,-0.00448623,0.00291372,-0.99998569
1312468627.72307277,-0.00446921,0.00291661,-0.99998576
1312468627.77113318,-0.00534125,0.00305895,-0.99998106
1312468627.82203865,-0.00559742,0.00322878,-0.99997912
1312468627.87120891,-0.00576753,0.00320163,-0.99997824
1312468627.91159773,-0.00590249,0.00316300,-0.99997758
1312468627.97114205,-0.00589070,0.00304336,-0.99997802
1312468628.02309608,-0.00682603,0.00334805,-0.99997110
1312468628.07156873,-0.00695881,0.00348162,-0.99996973
1312468628.12410116,-0.00708064,0.00332891,-0.99996939
1312468628.17162371,-0.00714718,0.00338526,-0.99996873
1312468628.22169662,-0.00747252,0.00334833,-0.99996647
1312468628.27221870,-0.00760315,0.00377296,-0.99996398
1312468628.32310987,-0.00764162,0.00384186,-0.99996342
1312468628.37119913,-0.00752187,0.00386479,-0.99996424
1312468628.41111970,-0.00764559,0.00352986,-0.99996454
1312468628.47202849,-0.00755976,0.00354810,-0.99996513
1312468628.52413249,-0.00736027,0.00420266,-0.99996408
1312468628.57221866,-0.00764860,0.00433009,-0.99996137
1312468628.62310147,-0.00775666,0.00406049,-0.99996167
1312468628.66420436,-0.00777606,0.00413233,-0.99996123
1312468628.72309566,-0.00790985,0.00433088,-0.99995934
1312468628.77215266,-0.00814670,0.00407473,-0.99995851
1312468628.82311893,-0.00810838,0.00371669,-0.99996022
1312468628.87229633,-0.00806150,0.00375914,-0.99996044
1312468628.91214681,-0.00812089,0.00368529,-0.99996023
1312468628.97120190,-0.00831429,0.00339093,-0.99995969
1312468629.02032280,-0.00778263,0.00326255,-0.99996439
1312468629.07122803,-0.00788913,0.00323041,-0.99996366
1312468629.12413955,-0.00786370,0.00326933,-0.99996374
1312468629.17213631,-0.00801647,0.00327234,-0.99996251
1312468629.22325897,-0.00808389,0.00296958,-0.99996292
1312468629.27110696,-0.00717057,0.00303499,-0.99996969
1312468629.32307243,-0.00716464,0.00305454,-0.99996967
1312468629.37108135,-0.00716546,0.00311151,-0.99996949
1312468629.41211796,-0.00712255,0.00298711,-0.99997017
1312468629.47220993,-0.00705475,0.00300228,-0.99997061
1312468629.52307343,-0.00696651,0.00278977,-0.99997184
1312468629.57107472,-0.00681719,0.00294038,-0.99997244
1312468629.62320757,-0.00701782,0.00294921,-0.99997103
1312468629.66310120,-0.00694408,0.00277786,-0.99997203
1312468629.72311664,-0.00693857,0.00295818,-0.99997155
1312468629.77138805,-0.00727974,0.00256692,-0.99997021
1312468629.82167387,-0.00751872,0.00244953,-0.99996873
1312468629.87217903,-0.00751597,0.00257135,-0.99996845
1312468629.91220212,-0.00756677,0.00260556,-0.99996798
1312468629.97223568,-0.00747302,0.00268384,-0.99996847
1312468630.02350426,-0.00758551,0.00205454,-0.99996912
1312468630.07131672,-0.00764037,0.00210418,-0.99996860
1312468630.12414336,-0.00769343,0.00240070,-0.99996752
1312468630.17210746,-0.00764590,0.00226986,-0.99996819
1312468630.22312403,-0.00756291,0.00228684,-0.99996879
1312468630.27108788,-0.00766370,0.00219792,-0.99996822
1312468630.32408595,-0.00796957,0.00212616,-0.99996598
1312468630.37107825,-0.00801910,0.00204447,-0.99996576
1312468630.41221571,-0.00786268,0.00192675,-0.99996723
1312468630.47200251,-0.00796769,0.00198710,-0.99996628
1312468630.52318168,-0.00704683,0.00187448,-0.99997341
1312468630.57120299,-0.00722332,0.00203046,-0.99997185
1312468630.62197638,-0.00746747,0.00196345,-0.99997019
1312468630.66410398,-0.00730442,0.00174559,-0.99997180
1312468630.72411942,-0.00721558,0.00194645,-0.99997207
1312468630.77120137,-0.00634075,0.00138215,-0.99997894
1312468630.82410026,-0.00627791,0.00159662,-0.99997902
1312468630.87121081,-0.00619846,0.00170892,-0.99997933
1312468630.91136718,-0.00599505,0.00182965,-0.99998036
1312468630.97175241,-0.00605194,0.00178037,-0.99998010
1312468631.02310395,-0.00566854,0.00137884,-0.99998298
1312468631.07212138,-0.00568014,0.00166113,-0.99998249
1312468631.12309599,-0.00569053,0.00152536,-0.99998265
1312468631.17211103,-0.00557077,0.00153197,-0.99998331
1312468631.22413373,-0.00568148,0.00142930,-0.99998284
1312468631.27221370,-0.00553336,0.00137380,-0.99998375
1312468631.32311368,-0.00544422,0.00142477,-0.99998417
1312468631.37119293,-0.00555789,0.00121572,-0.99998382
1312468631.41120768,-0.00580704,0.00118931,-0.99998243
1312468631.47208810,-0.00574348,0.00109027,-0.99998291
1312468631.52311778,-0.00574753,0.00179363,-0.99998187
1312468631.57108283,-0.00586617,0.00176261,-0.99998124
1312468631.62359190,-0.00597792,0.00142994,-0.99998111
1312468631.66321278,-0.00614260,0.00147009,-0.99998005
1312468631.72318530,-0.00604874,0.00125752,-0.99998092
1312468631.77209449,-0.00610006,0.00206283,-0.99997927
1312468631.82035995,-0.00598928,0.00165536,-0.99998069
1312468631.87113404,-0.00601353,0.00144211,-0.99998088
1312468631.91211891,-0.00605312,0.00133288,-0.99998079
1312468631.97108698,-0.00608080,0.00100211,-0.99998101
1312468632.02423716,-0.00646422,0.00123244,-0.99997835
1312468632.07127905,-0.00651685,0.00113017,-0.99997813
1312468632.12346721,-0.00659311,0.00107873,-0.99997768
1312468632.17137909,-0.00658925,0.00117359,-0.99997760
1312468632.22386456,-0.00661920,0.00132973,-0.99997721
1312468632.27111316,-0.00605125,0.00172761,-0.99998020
1312468632.32352328,-0.00590628,0.00163180,-0.99998123
1312468632.37173200,-0.00585014,0.00156509,-0.99998166
1312468632.41220713,-0.00594867,0.00150970,-0.99998117
1312468632.47108579,-0.00591321,0.00121333,-0.99998178
1312468632.52019477,-0.00601619,0.00182400,-0.99998024
1312468632.57109809,-0.00603567,0.00189731,-0.99997999
1312468632.62008071,-0.00611773,0.00171895,-0.99997981
1312468632.66348219,-0.00653783,0.00153866,-0.99997744
1312468632.72308517,-0.00647622,0.00178570,-0.99997743
1312468632.77149487,-0.00671644,0.00184057,-0.99997575
1312468632.82348061,-0.00665047,0.00164456,-0.99997653
1312468632.87110806,-0.00668180,0.00155933,-0.99997646
1312468632.92324519,-0.00642462,0.00140305,-0.99997838
1312468632.97122860,-0.00640860,0.00143944,-0.99997843
1312468633.02708292,-0.00646058,0.00157272,-0.99997789
1312468633.07510114,-0.00653886,0.00144081,-0.99997758
1312468633.12351584,-0.00671112,0.00149720,-0.99997636
1312468633.17107534,-0.00682822,0.00142335,-0.99997567
